Weather History for Limon, CO

Change the Weather History Date:

Tuesday, September 24, 2013

  Actual Average Record
Temperature  
Mean Temperature 53 °F -  
Max Temperature 71 °F - 84 °F (1998)
Min Temperature 35 °F - 28 °F (2000)
Degree Days  
Heating Degree Days 12    
Month to date heating degree days 61  
Cooling Degree Days 0    
Month to date cooling degree days 62  
Growing Degree Days 2 (Base 50)    
Moisture  
Dew Point 36 °F    
Average Humidity 62    
Maximum Humidity 100    
Minimum Humidity 23    
Precipitation  
Precipitation 0.00 in - 0.06 in (2000)
Month to date precipitation 3.95  
Year to date precipitation 16.10  
Sea Level Pressure  
Sea Level Pressure 30.00 in    
Wind  
Wind Speed 8 mph (SSE)    
Max Wind Speed 24 mph    
Max Gust Speed 31 mph    
Visibility 10 miles    
Events      
T = Trace of Precipitation, MM = Missing Value Source: NWS Daily Summary

Daily Weather History Graph

Daily Weather History Graph

Search for Another Location

Airport:

Trip Planner

Search our weather history database for the weather conditions in past years. The results will help you decide how hot, cold, wet, or windy it might be!

Date:

Astronomy

Sep. 24, 2013 Rise Set
Actual Time 6:44 AM MDT 6:47 PM MDT
Civil Twilight 6:17 AM MDT 7:14 PM MDT
Nautical Twilight 5:46 AM MDT 7:45 PM MDT
Astronomical Twilight 5:14 AM MDT 8:17 PM MDT
Moon 10:09 PM MDT (9/24) 11:59 AM MDT (9/24)
Length of Visible Light 12h 56m
Length of Day
12h 03m
Waning Gibbous, 72% of the Moon is Illuminated
Sep 24
Waning Gibbous
Sep 26
Last Quarter
Oct 4
New
Oct 11
First Quarter
Oct 18
Full

Hourly Weather History & Observations

Time (MDT) Temp. Windchill Dew Point Humidity Pressure Visibility Wind Dir Wind Speed Gust Speed Precip Events Conditions
12:55 AM 39.9 °F 35.8 °F 39.0 °F 97% 30.03 in 10.0 mi SE 5.8 mph - N/A   Clear
1:55 AM 39.0 °F 33.4 °F 37.9 °F 96% 30.03 in 10.0 mi WSW 8.1 mph - N/A   Clear
2:55 AM 42.1 °F 36.6 °F 37.0 °F 82% 30.01 in 10.0 mi West 9.2 mph - N/A   Clear
3:55 AM 41.0 °F 39.0 °F 36.0 °F 82% 30.03 in 10.0 mi NNW 3.5 mph - N/A   Clear
4:55 AM 37.0 °F 34.5 °F 35.1 °F 93% 30.06 in 10.0 mi North 3.5 mph - N/A   Clear
5:55 AM 35.1 °F 32.2 °F 34.0 °F 96% 30.08 in 10.0 mi North 3.5 mph - N/A   Clear
6:55 AM 36.0 °F - 35.1 °F 97% 30.10 in 10.0 mi Calm Calm - N/A   Clear
7:55 AM 44.1 °F - 39.0 °F 82% 30.11 in 10.0 mi Calm Calm - N/A   Clear
8:55 AM 55.0 °F - 39.9 °F 57% 30.11 in 10.0 mi Calm Calm - N/A   Clear
9:55 AM 61.0 °F - 41.0 °F 48% 30.09 in 10.0 mi SE 8.1 mph - N/A   Clear
10:55 AM 64.0 °F - 37.9 °F 38% 30.08 in 10.0 mi SSE 10.4 mph - N/A   Clear
11:55 AM 66.0 °F - 36.0 °F 33% 30.06 in 10.0 mi SSE 12.7 mph 19.6 mph N/A   Clear
12:55 PM 68.0 °F - 35.1 °F 30% 30.03 in 10.0 mi SSE 16.1 mph 21.9 mph N/A   Clear
1:55 PM 69.1 °F - 33.1 °F 26% 30.00 in 10.0 mi SSE 16.1 mph 23.0 mph N/A   Clear
2:55 PM 70.0 °F - 33.1 °F 26% 29.95 in 10.0 mi SSE 23.0 mph 28.8 mph N/A   Clear
3:55 PM 70.0 °F - 30.9 °F 24% 29.93 in 10.0 mi SSE 18.4 mph 28.8 mph N/A   Clear
4:55 PM 69.1 °F - 32.0 °F 25% 29.94 in 10.0 mi SSE 18.4 mph 27.6 mph N/A   Clear
5:55 PM 66.0 °F - 30.9 °F 27% 29.94 in 10.0 mi SSE 16.1 mph 24.2 mph N/A   Clear
6:55 PM 57.9 °F - 35.1 °F 42% 29.95 in 10.0 mi SSE 12.7 mph - N/A   Clear
7:55 PM 52.0 °F - 37.0 °F 57% 29.94 in 10.0 mi SSE 10.4 mph - N/A   Clear
8:55 PM 48.9 °F - 37.9 °F 66% 29.92 in 10.0 mi SSE 10.4 mph - N/A   Clear
9:55 PM 48.0 °F - 37.9 °F 68% 29.89 in 10.0 mi SSE 9.2 mph - N/A   Clear
10:55 PM 46.0 °F 42.5 °F 37.9 °F 73% 29.86 in 10.0 mi SE 6.9 mph - N/A   Clear
11:55 PM 46.0 °F 42.5 °F 37.9 °F 73% 29.83 in 10.0 mi SE 6.9 mph - N/A   Clear